User: anonymous   Login
Location: Cornospital
(48.0620°N, 3.3837°W)
Time: 21:35:23
(UTC+00:00)
Language:

MICRODRAGON - Orbit

View from above orbital plane
View from above orbital plane
View from above satellite
View from above satellite

Ground track
Ground track

The orbit data is extracted from the following two-line orbital elements,

1 43935U 19003D   22022.54598352  .00002650  00000-0  11136-3 0  9994
2 43935  97.1557  59.2956 0016715 337.4601  22.5901 15.24140555167465
Epoch (UTC): 22 January 2022 13:06:12
Eccentricity: 0.0016715
inclination: 97.1557°
perigee height: 482 km
apogee height: 505 km
right ascension of ascending node: 59.2956°
argument of perigee: 337.4601°
revolutions per day: 15.24140555
mean anomaly at epoch: 22.5901°
orbit number at epoch: 16746

The dashed part of the orbit path shows where the satellite is in the earth's shadow,  

DLR